This is the latest recevied weather packets stored in our database for station/object KE6YLF. If no packets are shown the sender has not sent any weather packets the latest 10 day(s).
| Time | Temp. | Humidity | Pressure | Rain* | Wind** | Luminosity | Snow |
|---|---|---|---|---|---|---|---|
| 1788372678 | 34.44° C | 40% | 1079.5 hPa | 0 mm | - | - | - |
| 1788372378 | 35° C | 40% | 1079.3 hPa | 0 mm | - | - | - |
| 1788372075 | 33.89° C | 41% | 1079.3 hPa | 0 mm | - | - | - |
| 1788371774 | 34.44° C | 43% | 1079.4 hPa | 0 mm | - | - | - |
| 1788371470 | 34.44° C | 41% | 1079.3 hPa | 0 mm | - | - | - |
| 1788371167 | 35° C | 39% | 1079.6 hPa | 0 mm | - | - | - |
| 1788370862 | 35° C | 40% | 1079.5 hPa | 0 mm | - | - | - |
| 1788370561 | 35° C | 42% | 1079.6 hPa | 0 mm | - | - | - |
| 1788370257 | 34.44° C | 42% | 1079.7 hPa | 0 mm | - | - | - |
| 1788369956 | 33.89° C | 42% | 1079.6 hPa | 0 mm | - | - | - |
| 1788369651 | 33.89° C | 43% | 1079.7 hPa | 0 mm | - | - | - |
| 1788369347 | 33.89° C | 43% | 1079.6 hPa | 0 mm | - | - | - |
| 1788369043 | 34.44° C | 42% | 1079.6 hPa | 0 mm | - | - | - |
| 1788368738 | 33.89° C | 42% | 1079.6 hPa | 0 mm | - | - | - |
| 1788368434 | 33.89° C | 44% | 1079.6 hPa | 0 mm | - | - | - |
| 1788368133 | 33.33° C | 44% | 1079.7 hPa | 0 mm | - | - | - |
| 1788367833 | 32.78° C | 46% | 1079.7 hPa | 0 mm | - | - | - |
| 1788367528 | 32.78° C | 46% | 1079.7 hPa | 0 mm | - | - | - |
| 1788367227 | 32.78° C | 46% | 1079.5 hPa | 0 mm | - | - | - |
| 1788366923 | 32.78° C | 45% | 1079.5 hPa | 0 mm | - | - | - |
| 1788366622 | 32.78° C | 47% | 1079.5 hPa | 0 mm | - | - | - |
| 1788366321 | 32.78° C | 48% | 1079.4 hPa | 0 mm | - | - | - |
| 1788366017 | 32.22° C | 48% | 1079.5 hPa | 0 mm | - | - | - |
| 1788365712 | 32.22° C | 48% | 1079.4 hPa | 0 mm | - | - | - |
| 1788365407 | 32.78° C | 49% | 1079.5 hPa | 0 mm | - | - | - |
* Rain latest hour (hover to see other rain measurements)
** Current wind speed in m/s (hover to see current wind gust speed)